Canton, MA

2:36 AM EST on February 23, 2017 (GMT -0500)
East Milton

Weather History for KMQE - October, 2013

Change the Weather History Date:

Friday, October 4, 2013

  Actual Average (KOWD) Record (KOWD)
Temperature  
Mean Temperature 60 °F -  
Max Temperature 68 °F 64 °F 86 °F (2007)
Min Temperature 57 °F 39 °F 30 °F (1998)
Degree Days  
Heating Degree Days 5    
Growing Degree Days 10 (Base 50)    
Moisture  
Dew Point 51 °F    
Average Humidity 76    
Maximum Humidity 97    
Minimum Humidity 51    
Precipitation  
Precipitation 0.26 in - - ()
Sea Level Pressure  
Sea Level Pressure 30.09 in    
Wind  
Wind Speed 6 mph (NNW)    
Max Wind Speed 13 mph    
Max Gust Speed -    
Averages and records for this station are not official NWS values.
T = Trace of Precipitation, MM = Missing Value Source: NWS Daily Summary

Daily Weather History Graph

Daily Weather History Graph

Search for Another Location

Airport or City:

Trip Planner

Search our weather history database for the weather conditions in past years. The results will help you decide how hot, cold, wet, or windy it might be!

Date:

Astronomy

Oct. 04, 2013 Rise Set
Actual Time 6:44 AM EDT 6:20 PM EDT
Civil Twilight 6:17 AM EDT 6:48 PM EDT
Nautical Twilight 5:44 AM EDT 7:20 PM EDT
Astronomical Twilight 5:11 AM EDT 7:53 PM EDT
Moon 6:17 AM EDT (10/4) 6:00 PM EDT (10/4)
Length of Visible Light 12h 31m
Length of Day
11h 35m
Waning Crescent, 0% of the Moon is Illuminated
Oct 4
Waning Crescent
Oct 4
New
Oct 11
First Quarter
Oct 18
Full
Oct 26
Last Quarter

Hourly Weather History & Observations

Time (EDT) Temp. Dew Point Humidity Pressure Visibility Wind Dir Wind Speed Gust Speed Precip Events Conditions
12:54 AM 61.0 °F 46.0 °F 58% 30.08 in - WNW 12.7 mph - N/A   Unknown
1:54 AM 61.0 °F 46.0 °F 58% 30.08 in - WNW 9.2 mph - N/A   Unknown
2:54 AM 59.0 °F 46.0 °F 62% 30.08 in - WNW 8.1 mph - N/A   Unknown
3:54 AM 59.0 °F 45.0 °F 60% 30.07 in - WNW 8.1 mph - N/A   Unknown
4:54 AM 61.0 °F 43.0 °F 52% 30.08 in - WNW 5.8 mph - N/A   Unknown
5:54 AM 60.1 °F 42.1 °F 51% 30.07 in - NNW 6.9 mph - N/A   Unknown
6:54 AM 59.0 °F 43.0 °F 55% 30.08 in - NNW 6.9 mph - N/A   Unknown
7:54 AM 61.0 °F 46.0 °F 58% 30.09 in - NNE 5.8 mph - N/A   Unknown
8:54 AM 62.1 °F 48.9 °F 62% 30.10 in - Calm Calm - N/A   Unknown
9:54 AM 61.0 °F 50.0 °F 67% 30.10 in - North 6.9 mph - N/A   Unknown
10:54 AM 63.0 °F 52.0 °F 67% 30.10 in - Calm Calm - N/A   Unknown
11:54 AM 57.0 °F 55.9 °F 96% 30.11 in - North 5.8 mph - 0.07 in   Unknown
12:54 PM 57.9 °F 57.0 °F 97% 30.10 in - NW 3.5 mph - 0.02 in   Unknown
1:54 PM 57.0 °F 55.9 °F 96% 30.10 in - WNW 4.6 mph - 0.06 in   Unknown
2:54 PM 59.0 °F 57.9 °F 96% 30.07 in - ESE 4.6 mph - 0.11 in   Unknown
3:54 PM 60.1 °F 57.9 °F 93% 30.08 in - Calm Calm - N/A   Unknown
4:54 PM 60.1 °F 55.9 °F 86% 30.07 in - Calm Calm - N/A   Unknown
5:54 PM 59.0 °F 57.0 °F 93% 30.08 in - Calm Calm - N/A   Unknown
6:54 PM 57.9 °F 57.0 °F 97% 30.08 in - Calm Calm - N/A   Unknown
7:54 PM 57.9 °F 55.0 °F 90% 30.09 in - Calm Calm - N/A   Unknown
8:54 PM 57.0 °F 55.0 °F 93% 30.09 in - Calm Calm - N/A   Unknown
9:54 PM 57.0 °F 50.0 °F 77% 30.10 in - Calm Calm - N/A   Unknown
10:54 PM 57.9 °F 51.1 °F 78% 30.09 in - Calm Calm - N/A   Unknown
11:54 PM 57.9 °F 55.0 °F 90% 30.10 in - ENE 4.6 mph - N/A   Unknown